Location: Bazugues
(43.4465°N, 0.3432°E)
Time: 20:11:56
(UTC+00:00)

NOSS 3-4 (C) - Pass Details

Date: 12 January 2026
Orbit: 773 x 1438 km, 63.4° (Epoch: 26 December)

Event Time Altitude Azimuth Distance (km) Brightness Sun altitude
Rises 17:30:12 0° 185° (S) 3,234 6.6 -8.3°
Reaches altitude 10° 17:32:47 10° 174° (S) 2,312 5.7 -8.7°
Maximum altitude 17:37:19 30° 114° (ESE) 1,382 4.0 -9.5°
Enters shadow 17:41:36 12° 57° (ENE) 2,290 4.8 -10.2°
